| time (UTC) | temp C | wind direction | speed KPH | gust KPH | rain 1hr cm | rain 24hr cm | rain mn cm | humidity % | barometer mb |
| 20260505102108 | 13 | 169 | 3.2 | 8.0 | 0.00 | 0.00 | 0.00 | 96 | 980.9 |
| 20260505101609 | 13 | 155 | 4.8 | 9.7 | 0.00 | 0.00 | 0.00 | 96 | 980.8 |
| 20260505100608 | 13 | 197 | 0.0 | 0.0 | 0.00 | 0.00 | 0.00 | 95 | 981.3 |
| 20260505100109 | 13 | 187 | 0.0 | 4.8 | 0.00 | 0.00 | 0.00 | 94 | 981.7 |
| 20260505095608 | 13 | 242 | 0.0 | 3.2 | 0.00 | 0.00 | 0.00 | 94 | 981.8 |
| 20260505095108 | 14 | 194 | 1.6 | 4.8 | 0.00 | 0.00 | 0.00 | 94 | 981.9 |
| 20260505094608 | 14 | 194 | 1.6 | 4.8 | 0.00 | 0.00 | 0.00 | 93 | 981.8 |
| 20260505094109 | 14 | 220 | 1.6 | 4.8 | 0.00 | 0.00 | 0.00 | 93 | 981.9 |
| 20260505093608 | 14 | 112 | 0.0 | 1.6 | 0.00 | 0.00 | 0.00 | 92 | 981.9 |
| 20260505092108 | 15 | 305 | 1.6 | 3.2 | 0.00 | 0.00 | 0.00 | 88 | 981.6 |
| 20260505091608 | 15 | 228 | 1.6 | 9.7 | 0.00 | 0.00 | 0.00 | 86 | 981.6 |
| 20260505091108 | 16 | 324 | 1.6 | 8.0 | 0.00 | 0.00 | 0.00 | 82 | 981.5 |
| 20260505090608 | 16 | 183 | 3.2 | 9.7 | 0.00 | 0.00 | 0.00 | 80 | 981.2 |
| 20260505090108 | 16 | 0 | 1.6 | 4.8 | 0.00 | 0.00 | 0.00 | 78 | 981.1 |
| 20260505085608 | 16 | 209 | 0.0 | 4.8 | 0.00 | 0.00 | 0.00 | 76 | 980.7 |
| 20260505085108 | 16 | 348 | 1.6 | 4.8 | 0.00 | 0.00 | 0.00 | 75 | 980.3 |
| 20260505084608 | 16 | 20 | 1.6 | 8.0 | 0.00 | 0.00 | 0.00 | 74 | 980.2 |
| 20260505084108 | 17 | 14 | 3.2 | 4.8 | 0.00 | 0.00 | 0.00 | 72 | 980.6 |
| 20260505083608 | 17 | 323 | 0.0 | 3.2 | 0.00 | 0.00 | 0.00 | 67 | 980.1 |
| 20260505083108 | 17 | 153 | 0.0 | 3.2 | 0.00 | 0.00 | 0.00 | 68 | 979.8 |
| 20260505082608 | 17 | 154 | 3.2 | 3.2 | 0.00 | 0.00 | 0.00 | 67 | 979.7 |
| 20260505082108 | 17 | 170 | 0.0 | 0.0 | 0.00 | 0.00 | 0.00 | 67 | 979.6 |
| 20260505081608 | 17 | 170 | 0.0 | 0.0 | 0.00 | 0.00 | 0.00 | 67 | 979.5 |
| 20260505081108 | 17 | 170 | 0.0 | 1.6 | 0.00 | 0.00 | 0.00 | 67 | 979.4 |
| 20260505080608 | 17 | 178 | 0.0 | 0.0 | 0.00 | 0.00 | 0.00 | 66 | 979.2 |
| 20260505080108 | 17 | 127 | 0.0 | 0.0 | 0.00 | 0.00 | 0.00 | 66 | 979.1 |
| 20260505075608 | 17 | 127 | 0.0 | 3.2 | 0.00 | 0.00 | 0.00 | 65 | 979.1 |
| 20260505075107 | 17 | 146 | 1.6 | 3.2 | 0.00 | 0.00 | 0.00 | 65 | 979.1 |
| 20260505074608 | 17 | 186 | 0.0 | 1.6 | 0.00 | 0.00 | 0.00 | 66 | 979.3 |
| 20260505074108 | 17 | 184 | 0.0 | 3.2 | 0.00 | 0.00 | 0.00 | 66 | 979.3 |
| 20260505073108 | 17 | 220 | 0.0 | 1.6 | 0.00 | 0.00 | 0.00 | 66 | 979.3 |
| 20260505072608 | 17 | 216 | 0.0 | 0.0 | 0.00 | 0.00 | 0.00 | 66 | 979.2 |
| 20260505071608 | 17 | 194 | 0.0 | 0.0 | 0.00 | 0.00 | 0.00 | 66 | 979.2 |
| 20260505071108 | 17 | 194 | 0.0 | 0.0 | 0.00 | 0.00 | 0.00 | 66 | 979.1 |
| 20260505070608 | 17 | 194 | 0.0 | 0.0 | 0.00 | 0.00 | 0.00 | 65 | 979.1 |
| 20260505070108 | 17 | 194 | 0.0 | 1.6 | 0.00 | 0.00 | 0.00 | 65 | 979.1 |
| 20260505065608 | 17 | 167 | 0.0 | 3.2 | 0.00 | 0.00 | 0.00 | 65 | 979.1 |
| 20260505065107 | 17 | 221 | 0.0 | 0.0 | 0.00 | 0.00 | 0.00 | 64 | 979.0 |
| 20260505064608 | 17 | 195 | 0.0 | 3.2 | 0.00 | 0.00 | 0.00 | 64 | 979.0 |
| 20260505064108 | 17 | 236 | 0.0 | 3.2 | 0.00 | 0.00 | 0.00 | 64 | 979.0 |
| 20260505063608 | 18 | 248 | 1.6 | 4.8 | 0.00 | 0.00 | 0.00 | 63 | 978.9 |
| 20260505063108 | 18 | 231 | 3.2 | 8.0 | 0.00 | 0.00 | 0.00 | 63 | 978.8 |
| 20260505062608 | 18 | 202 | 4.8 | 8.0 | 0.00 | 0.00 | 0.00 | 63 | 978.8 |
| 20260505060607 | 18 | 208 | 4.8 | 8.0 | 0.00 | 0.00 | 0.00 | 62 | 978.7 |
| 20260505060108 | 18 | 196 | 3.2 | 8.0 | 0.00 | 0.00 | 0.00 | 62 | 978.7 |
| 20260505055107 | 18 | 190 | 3.2 | 8.0 | 0.00 | 0.00 | 0.00 | 62 | 978.6 |
| 20260505054608 | 18 | 207 | 3.2 | 4.8 | 0.00 | 0.00 | 0.00 | 62 | 978.6 |
| 20260505054108 | 18 | 197 | 4.8 | 9.7 | 0.00 | 0.00 | 0.00 | 61 | 978.4 |
| 20260505053608 | 18 | 188 | 3.2 | 14.5 | 0.00 | 0.00 | 0.00 | 60 | 978.3 |
| 20260505053108 | 18 | 187 | 4.8 | 11.3 | 0.00 | 0.00 | 0.00 | 60 | 978.2 |
| 20260505052608 | 18 | 185 | 4.8 | 11.3 | 0.00 | 0.00 | 0.00 | 60 | 978.2 |
| 20260505052108 | 18 | 172 | 8.0 | 14.5 | 0.00 | 0.00 | 0.00 | 60 | 978.1 |
| 20260505051608 | 18 | 175 | 8.0 | 12.9 | 0.00 | 0.00 | 0.00 | 60 | 978.1 |
| 20260505051107 | 19 | 197 | 4.8 | 11.3 | 0.00 | 0.00 | 0.00 | 60 | 978.1 |
| 20260505050607 | 19 | 180 | 8.0 | 11.3 | 0.00 | 0.00 | 0.00 | 60 | 978.0 |
| 20260505050108 | 19 | 184 | 8.0 | 14.5 | 0.00 | 0.00 | 0.00 | 60 | 978.0 |
| 20260505041607 | 19 | 210 | 4.8 | 16.1 | 0.00 | 0.00 | 0.00 | 60 | 978.6 |
| 20260505040608 | 19 | 190 | 8.0 | 14.5 | 0.00 | 0.00 | 0.00 | 59 | 978.6 |
| 20260505040108 | 19 | 182 | 4.8 | 12.9 | 0.00 | 0.00 | 0.00 | 59 | 978.7 |
| 20260505035608 | 19 | 172 | 4.8 | 12.9 | 0.00 | 0.00 | 0.00 | 59 | 978.7 |
| 20260505035108 | 19 | 180 | 4.8 | 11.3 | 0.00 | 0.00 | 0.00 | 60 | 978.7 |
| 20260505034608 | 20 | 185 | 4.8 | 9.7 | 0.00 | 0.00 | 0.00 | 59 | 978.7 |
| 20260505034108 | 20 | 181 | 4.8 | 11.3 | 0.00 | 0.00 | 0.00 | 59 | 978.7 |
| 20260505033608 | 20 | 185 | 3.2 | 4.8 | 0.00 | 0.00 | 0.00 | 59 | 978.9 |
| 20260505033107 | 20 | 186 | 4.8 | 9.7 | 0.00 | 0.00 | 0.00 | 58 | 978.9 |
| 20260505032608 | 20 | 184 | 3.2 | 11.3 | 0.00 | 0.00 | 0.00 | 59 | 978.8 |
| 20260505032108 | 20 | 180 | 3.2 | 8.0 | 0.00 | 0.00 | 0.00 | 58 | 978.8 |
| 20260505031607 | 20 | 180 | 3.2 | 8.0 | 0.00 | 0.00 | 0.00 | 58 | 978.8 |
| 20260505030607 | 20 | 185 | 4.8 | 11.3 | 0.00 | 0.00 | 0.00 | 57 | 978.7 |
| 20260505030108 | 20 | 173 | 3.2 | 11.3 | 0.00 | 0.00 | 0.00 | 57 | 978.7 |
| 20260505025608 | 20 | 186 | 3.2 | 9.7 | 0.00 | 0.00 | 0.00 | 57 | 978.7 |
| 20260505025108 | 20 | 187 | 3.2 | 8.0 | 0.00 | 0.00 | 0.00 | 57 | 978.6 |
| 20260505024608 | 20 | 179 | 3.2 | 8.0 | 0.00 | 0.00 | 0.00 | 57 | 978.6 |
| 20260505024108 | 20 | 182 | 3.2 | 8.0 | 0.00 | 0.00 | 0.00 | 57 | 978.5 |
| 20260505023607 | 20 | 153 | 4.8 | 9.7 | 0.00 | 0.00 | 0.00 | 56 | 978.4 |
| 20260505023107 | 20 | 173 | 4.8 | 11.3 | 0.00 | 0.00 | 0.00 | 56 | 978.3 |
| 20260505022607 | 20 | 172 | 4.8 | 11.3 | 0.00 | 0.00 | 0.00 | 56 | 978.3 |
| 20260505021608 | 20 | 178 | 4.8 | 11.3 | 0.00 | 0.00 | 0.00 | 56 | 978.2 |
| 20260505021107 | 20 | 169 | 4.8 | 9.7 | 0.00 | 0.00 | 0.00 | 56 | 978.1 |
| 20260505020607 | 21 | 172 | 4.8 | 9.7 | 0.00 | 0.00 | 0.00 | 56 | 978.0 |
| 20260505020107 | 21 | 173 | 4.8 | 9.7 | 0.00 | 0.00 | 0.00 | 55 | 977.9 |
| 20260505015607 | 21 | 174 | 4.8 | 11.3 | 0.00 | 0.00 | 0.00 | 55 | 977.8 |
| 20260505015107 | 21 | 171 | 6.4 | 12.9 | 0.00 | 0.00 | 0.00 | 54 | 977.7 |
| 20260505014608 | 21 | 174 | 4.8 | 11.3 | 0.00 | 0.00 | 0.00 | 55 | 977.6 |
| 20260505013607 | 21 | 173 | 6.4 | 12.9 | 0.00 | 0.00 | 0.00 | 54 | 977.5 |
| 20260505013107 | 21 | 185 | 4.8 | 11.3 | 0.00 | 0.00 | 0.00 | 55 | 977.5 |
| 20260505012608 | 21 | 170 | 4.8 | 9.7 | 0.00 | 0.00 | 0.00 | 54 | 977.5 |
| 20260505011607 | 21 | 178 | 4.8 | 9.7 | 0.00 | 0.00 | 0.00 | 54 | 977.4 |
| 20260505011108 | 21 | 166 | 4.8 | 9.7 | 0.00 | 0.00 | 0.00 | 54 | 977.4 |
| 20260505010608 | 21 | 198 | 4.8 | 9.7 | 0.00 | 0.00 | 0.00 | 54 | 977.4 |
| 20260505010108 | 21 | 176 | 4.8 | 9.7 | 0.00 | 0.00 | 0.00 | 55 | 977.4 |
| 20260505005607 | 21 | 177 | 3.2 | 8.0 | 0.00 | 0.00 | 0.00 | 55 | 977.4 |
| 20260505005108 | 22 | 163 | 3.2 | 8.0 | 0.00 | 0.00 | 0.00 | 54 | 977.4 |
| 20260505004607 | 22 | 191 | 3.2 | 8.0 | 0.00 | 0.00 | 0.00 | 54 | 977.5 |
| 20260505004107 | 22 | 190 | 4.8 | 12.9 | 0.00 | 0.00 | 0.00 | 54 | 977.5 |
| 20260505003607 | 22 | 185 | 3.2 | 8.0 | 0.00 | 0.00 | 0.00 | 53 | 977.5 |
| 20260505003108 | 22 | 176 | 4.8 | 19.3 | 0.00 | 0.00 | 0.00 | 54 | 977.5 |
| 20260505002608 | 22 | 189 | 4.8 | 11.3 | 0.00 | 0.00 | 0.00 | 53 | 977.5 |
| 20260505001608 | 22 | 190 | 3.2 | 11.3 | 0.00 | 0.00 | 0.00 | 53 | 977.5 |
| 20260505000607 | 22 | 177 | 8.0 | 14.5 | 0.00 | 0.00 | 0.00 | 52 | 977.4 |
| 20260505000107 | 22 | 163 | 6.4 | 14.5 | 0.00 | 0.00 | 0.00 | 51 | 977.6 |
| 20260504235607 | 23 | 175 | 4.8 | 9.7 | 0.00 | 0.00 | 0.00 | 51 | 977.6 |
| 20260504235107 | 23 | 170 | 4.8 | 9.7 | 0.00 | 0.00 | 0.00 | 50 | 977.6 |
| 20260504234607 | 23 | 178 | 6.4 | 11.3 | 0.00 | 0.00 | 0.00 | 50 | 977.6 |
| 20260504234108 | 23 | 173 | 3.2 | 8.0 | 0.00 | 0.00 | 0.00 | 49 | 977.8 |
| 20260504233608 | 23 | 181 | 3.2 | 9.7 | 0.00 | 0.00 | 0.00 | 49 | 977.8 |
| 20260504233108 | 23 | 165 | 4.8 | 11.3 | 0.00 | 0.00 | 0.00 | 48 | 977.9 |
| 20260504232607 | 23 | 186 | 3.2 | 9.7 | 0.00 | 0.00 | 0.00 | 48 | 978.0 |
| 20260504232108 | 23 | 266 | 4.8 | 11.3 | 0.00 | 0.00 | 0.00 | 47 | 978.0 |
| 20260504231607 | 23 | 206 | 3.2 | 9.7 | 0.00 | 0.00 | 0.00 | 48 | 978.0 |
| 20260504231107 | 23 | 181 | 4.8 | 9.7 | 0.00 | 0.00 | 0.00 | 47 | 978.2 |
| 20260504230107 | 24 | 180 | 4.8 | 14.5 | 0.00 | 0.00 | 0.00 | 46 | 978.3 |
| 20260504225608 | 24 | 181 | 4.8 | 11.3 | 0.00 | 0.00 | 0.00 | 45 | 978.3 |
| 20260504225107 | 24 | 208 | 4.8 | 12.9 | 0.00 | 0.00 | 0.00 | 44 | 978.3 |
| 20260504224607 | 24 | 244 | 4.8 | 12.9 | 0.00 | 0.00 | 0.00 | 43 | 978.3 |
| 20260504224107 | 24 | 203 | 4.8 | 12.9 | 0.00 | 0.00 | 0.00 | 44 | 978.3 |
| 20260504223107 | 24 | 229 | 4.8 | 14.5 | 0.00 | 0.00 | 0.00 | 44 | 978.4 |
| 20260504222607 | 23 | 214 | 6.4 | 12.9 | 0.00 | 0.00 | 0.00 | 46 | 978.4 |
| 20260504222107 | 23 | 216 | 4.8 | 11.3 | 0.00 | 0.00 | 0.00 | 51 | 978.4 |
| 20260504221607 | 23 | 181 | 4.8 | 11.3 | 0.00 | 0.00 | 0.00 | 52 | 978.4 |
| 20260504221107 | 23 | 167 | 6.4 | 11.3 | 0.00 | 0.00 | 0.00 | 53 | 978.3 |
| 20260504220607 | 23 | 156 | 8.0 | 12.9 | 0.00 | 0.00 | 0.00 | 53 | 978.4 |
| 20260504220107 | 23 | 151 | 8.0 | 11.3 | 0.00 | 0.00 | 0.00 | 52 | 978.5 |
| 20260504215607 | 23 | 163 | 6.4 | 12.9 | 0.00 | 0.00 | 0.00 | 52 | 978.6 |
| 20260504215107 | 23 | 183 | 6.4 | 12.9 | 0.00 | 0.00 | 0.00 | 51 | 978.4 |
| 20260504214608 | 23 | 163 | 8.0 | 12.9 | 0.00 | 0.00 | 0.00 | 52 | 978.3 |
| 20260504214107 | 23 | 165 | 4.8 | 12.9 | 0.00 | 0.00 | 0.00 | 51 | 978.3 |
| 20260504213607 | 23 | 162 | 4.8 | 12.9 | 0.00 | 0.00 | 0.00 | 52 | 978.4 |
| 20260504213107 | 23 | 169 | 1.6 | 8.0 | 0.00 | 0.00 | 0.00 | 50 | 978.6 |
| 20260504212607 | 23 | 175 | 1.6 | 4.8 | 0.00 | 0.00 | 0.00 | 49 | 978.9 |
| 20260504211607 | 24 | 191 | 1.6 | 4.8 | 0.00 | 0.00 | 0.00 | 49 | 979.1 |
| 20260504211108 | 24 | 156 | 1.6 | 4.8 | 0.00 | 0.00 | 0.00 | 49 | 979.1 |
| 20260504210107 | 24 | 241 | 4.8 | 9.7 | 0.00 | 0.00 | 0.00 | 46 | 979.1 |
| 20260504205607 | 24 | 283 | 1.6 | 8.0 | 0.00 | 0.00 | 0.00 | 47 | 979.0 |
| 20260504205107 | 23 | 262 | 3.2 | 9.7 | 0.00 | 0.00 | 0.00 | 48 | 979.4 |
| 20260504204107 | 24 | 257 | 1.6 | 8.0 | 0.00 | 0.00 | 0.00 | 48 | 979.3 |
| 20260504203607 | 24 | 209 | 4.8 | 9.7 | 0.00 | 0.00 | 0.00 | 48 | 979.4 |
| 20260504203107 | 24 | 206 | 4.8 | 12.9 | 0.00 | 0.00 | 0.00 | 48 | 979.5 |
| 20260504202607 | 24 | 197 | 3.2 | 12.9 | 0.00 | 0.00 | 0.00 | 48 | 979.4 |
| 20260504202107 | 24 | 210 | 3.2 | 14.5 | 0.00 | 0.00 | 0.00 | 51 | 979.5 |
| 20260504201607 | 24 | 279 | 3.2 | 14.5 | 0.00 | 0.00 | 0.00 | 49 | 979.6 |
| 20260504201107 | 23 | 293 | 3.2 | 9.7 | 0.00 | 0.00 | 0.00 | 50 | 979.5 |
| 20260504200607 | 23 | 248 | 3.2 | 8.0 | 0.00 | 0.00 | 0.00 | 51 | 979.6 |
| 20260504200107 | 22 | 281 | 4.8 | 9.7 | 0.00 | 0.00 | 0.00 | 53 | 979.8 |
| 20260504195607 | 22 | 290 | 3.2 | 11.3 | 0.00 | 0.00 | 0.00 | 53 | 980.0 |
| 20260504194607 | 23 | 217 | 3.2 | 12.9 | 0.00 | 0.00 | 0.00 | 53 | 980.1 |
| 20260504194107 | 23 | 198 | 3.2 | 12.9 | 0.00 | 0.00 | 0.00 | 52 | 980.0 |
| 20260504193607 | 23 | 280 | 4.8 | 9.7 | 0.00 | 0.00 | 0.00 | 53 | 979.7 |
| 20260504192607 | 22 | 244 | 3.2 | 8.0 | 0.00 | 0.00 | 0.00 | 55 | 979.8 |
| 20260504192107 | 22 | 309 | 4.8 | 9.7 | 0.00 | 0.00 | 0.00 | 54 | 979.9 |
| 20260504190606 | 20 | 241 | 0.0 | 4.8 | 0.00 | 0.00 | 0.00 | 63 | 980.5 |
| 20260504190107 | 20 | 249 | 1.6 | 4.8 | 0.00 | 0.00 | 0.00 | 64 | 980.8 |
| 20260504185607 | 20 | 186 | 0.0 | 1.6 | 0.00 | 0.00 | 0.00 | 63 | 980.3 |
| 20260504185107 | 20 | 234 | 1.6 | 4.8 | 0.00 | 0.00 | 0.00 | 62 | 981.1 |
| 20260504184606 | 20 | 245 | 1.6 | 8.0 | 0.00 | 0.00 | 0.00 | 64 | 981.2 |
| 20260504184107 | 20 | 180 | 1.6 | 8.0 | 0.00 | 0.00 | 0.00 | 63 | 981.3 |
| 20260504183107 | 20 | 220 | 1.6 | 8.0 | 0.00 | 0.00 | 0.00 | 60 | 981.4 |
| 20260504182107 | 20 | 230 | 3.2 | 11.3 | 0.00 | 0.00 | 0.00 | 59 | 981.1 |
| 20260504181607 | 20 | 213 | 3.2 | 11.3 | 0.00 | 0.00 | 0.00 | 60 | 981.0 |
| 20260504181107 | 20 | 214 | 3.2 | 11.3 | 0.00 | 0.00 | 0.00 | 59 | 981.1 |
| 20260504180607 | 20 | 218 | 3.2 | 16.1 | 0.00 | 0.00 | 0.00 | 60 | 981.1 |
| 20260504180107 | 21 | 243 | 3.2 | 9.7 | 0.00 | 0.00 | 0.00 | 58 | 981.0 |
| 20260504175607 | 21 | 239 | 4.8 | 11.3 | 0.00 | 0.00 | 0.00 | 57 | 980.8 |
| 20260504175107 | 21 | 180 | 3.2 | 19.3 | 0.00 | 0.00 | 0.00 | 58 | 980.8 |
| 20260504174107 | 21 | 207 | 4.8 | 14.5 | 0.00 | 0.00 | 0.00 | 57 | 980.5 |
| 20260504173607 | 22 | 186 | 8.0 | 16.1 | 0.00 | 0.00 | 0.00 | 55 | 980.3 |
| 20260504172606 | 22 | 209 | 3.2 | 19.3 | 0.00 | 0.00 | 0.00 | 55 | 980.1 |
| 20260504172107 | 22 | 193 | 4.8 | 16.1 | 0.00 | 0.00 | 0.00 | 55 | 979.9 |
| 20260504171606 | 22 | 167 | 8.0 | 14.5 | 0.00 | 0.00 | 0.00 | 55 | 979.8 |
| 20260504171107 | 21 | 227 | 4.8 | 9.7 | 0.00 | 0.00 | 0.00 | 55 | 979.8 |
| 20260504170607 | 21 | 231 | 4.8 | 11.3 | 0.00 | 0.00 | 0.00 | 55 | 980.0 |
| 20260504170107 | 21 | 227 | 8.0 | 19.3 | 0.00 | 0.00 | 0.00 | 56 | 980.1 |
| 20260504150607 | 17 | 188 | 1.6 | 8.0 | 0.00 | 0.00 | 0.00 | 65 | 980.7 |
| 20260504150106 | 17 | 200 | 4.8 | 11.3 | 0.00 | 0.00 | 0.00 | 66 | 980.9 |
| 20260504140106 | 15 | 203 | 6.4 | 16.1 | 0.00 | 0.00 | 0.00 | 68 | 981.1 |
| 20260504130607 | 13 | 154 | 8.0 | 12.9 | 0.00 | 0.00 | 0.00 | 74 | 981.4 |
| 20260504130107 | 12 | 171 | 4.8 | 11.3 | 0.00 | 0.00 | 0.00 | 73 | 981.5 |
| 20260504120106 | 11 | 184 | 3.2 | 8.0 | 0.00 | 0.00 | 0.00 | 74 | 981.7 |
| 20260504110607 | 11 | 177 | 4.8 | 9.7 | 0.00 | 0.00 | 0.00 | 68 | 981.7 |
| 20260504110106 | 11 | 198 | 3.2 | 4.8 | 0.00 | 0.00 | 0.00 | 68 | 981.8 |